Location: Laterina
(43.5167°N, 11.7167°E)
Time: 16:26:48
(UTC+00:00)

Ariane Rocket - Pass Details

Date: 24 September 2020
Orbit: 760 x 769 km, 98.7° (Epoch: 26 October)

Event Time Altitude Azimuth Distance (km) Brightness Sun altitude
Exits shadow 19:28:05 26° 198° (SSW) 1,485 4.4 -25.8°
Maximum altitude 19:30:42 49° 260° (W) 988 3.8 -26.2°
Drops below altitude 10° 19:35:38 10° 335° (NNW) 2,314 6.1 -27.0°
Sets 19:38:02 0° 341° (NNW) 3,247 6.9 -27.4°
